• Currently

    Reported at Minneapolis, Minneapolis-St. Paul International Airport, MN
    6:53 PM CST WED APR 26 2017
  • 39°F4°C
  • Drizzle
    Drizzle
  • Feels Like:33°F0°CDew Point:32°F0°CHumidity:75% Winds:N 12 mph 19 kph
    Pressure:29.56 in1001 hPaVisibility:10.00 miles16090.00 meters
Time Weather Temp Dew Point
Humidity Winds Visibility Pressure Precipitation
1 hr 24 hr
Monday, April 24
23:53 23:53 Partly Cloudy Partly Cloudy 52°F11°C 39°F4°C 61% NE 8 mphNE 13 kph 10.0 miles16.1 km 29.88 in1012 hPa 0.00 in0.00 mm --
22:53 22:53 Mostly Cloudy Mostly Cloudy 54°F12°C 41°F5°C 62% NE 5 mphNE 7 kph 10.0 miles16.1 km 29.88 in1012 hPa 0.00 in0.00 mm --
21:53 21:53 Mostly Cloudy Mostly Cloudy 56°F13°C 41°F5°C 57% NNE 12 mphNNE 19 kph 10.0 miles16.1 km 29.91 in1013 hPa 0.00 in0.00 mm --
20:53 20:53 Mostly Cloudy Mostly Cloudy 61°F16°C 42°F6°C 50% N 10 mphN 17 kph 10.0 miles16.1 km 29.88 in1012 hPa 0.00 in0.00 mm --
19:53 19:53 Mostly Cloudy Mostly Cloudy 66°F19°C 35°F2°C 32% SE 8 mphSE 13 kph 10.0 miles16.1 km 29.85 in1011 hPa 0.00 in0.00 mm --
18:53 18:53 Mostly Cloudy Mostly Cloudy 68°F20°C 36°F2°C 31% SE 8 mphSE 13 kph 10.0 miles16.1 km 29.88 in1012 hPa 0.00 in0.00 mm --
17:53 17:53 Cloudy Cloudy 69°F21°C 33°F1°C 26% N 3 mphN 6 kph 10.0 miles16.1 km 29.88 in1012 hPa 0.00 in0.00 mm --
16:53 16:53 Cloudy Cloudy 69°F21°C 33°F1°C 26% N 6 mphN 9 kph 10.0 miles16.1 km 29.91 in1013 hPa 0.00 in0.00 mm --
15:53 15:53 Cloudy Cloudy 68°F20°C 39°F4°C 35% ENE 5 mphENE 7 kph 10.0 miles16.1 km 29.97 in1015 hPa 0.00 in0.00 mm --
14:53 14:53 Cloudy Cloudy 67°F19°C 40°F4°C 37% N/AN/A 10.0 miles16.1 km 30 in1016 hPa 0.00 in0.00 mm --
13:53 13:53 Mostly Cloudy Mostly Cloudy 64°F18°C 41°F5°C 43% CalmCalm 10.0 miles16.1 km 30 in1016 hPa 0.00 in0.00 mm --
12:53 12:53 Partly Cloudy Partly Cloudy 64°F18°C 41°F5°C 43% N 3 mphN 6 kph 10.0 miles16.1 km 30.03 in1017 hPa 0.00 in0.00 mm --
11:53 11:53 Partly Cloudy Partly Cloudy 60°F16°C 42°F6°C 52% N 3 mphN 6 kph 10.0 miles16.1 km 30.06 in1018 hPa 0.00 in0.00 mm --
10:53 10:53 Partly Cloudy Partly Cloudy 57°F14°C 41°F5°C 55% N 7 mphN 11 kph 10.0 miles16.1 km 30.09 in1019 hPa 0.00 in0.00 mm --
09:53 09:53 Partly Cloudy Partly Cloudy 55°F13°C 41°F5°C 59% NNE 9 mphNNE 15 kph 10.0 miles16.1 km 30.09 in1019 hPa 0.00 in0.00 mm --
08:53 08:53 Partly Cloudy Partly Cloudy 52°F11°C 40°F4°C 64% NE 8 mphNE 13 kph 10.0 miles16.1 km 30.09 in1019 hPa 0.00 in0.00 mm --
07:53 07:53 Mostly Cloudy Mostly Cloudy 51°F11°C 39°F4°C 64% N 10 mphN 17 kph 10.0 miles16.1 km 30.12 in1020 hPa 0.00 in0.00 mm --
06:53 06:53 Partly Cloudy Partly Cloudy 49°F9°C 36°F2°C 61% WSW 3 mphWSW 6 kph 10.0 miles16.1 km 30.09 in1019 hPa 0.00 in0.00 mm --
05:53 05:53 Mostly Clear Mostly Clear 51°F11°C 36°F2°C 56% WSW 5 mphWSW 7 kph 10.0 miles16.1 km 30.06 in1018 hPa 0.00 in0.00 mm --
04:53 04:53 Clear Clear 51°F11°C 35°F2°C 54% SW 9 mphSW 15 kph 10.0 miles16.1 km 30.06 in1018 hPa 0.00 in0.00 mm --
03:53 03:53 Clear Clear 52°F11°C 35°F2°C 53% WSW 6 mphWSW 9 kph 10.0 miles16.1 km 30.06 in1018 hPa 0.00 in0.00 mm --
02:53 02:53 Clear Clear 53°F12°C 35°F2°C 51% SW 5 mphSW 7 kph 10.0 miles16.1 km 30.06 in1018 hPa 0.00 in0.00 mm --
01:53 01:53 Clear Clear 54°F12°C 36°F2°C 51% SW 7 mphSW 11 kph 10.0 miles16.1 km 30.06 in1018 hPa 0.00 in0.00 mm --
00:53 00:53 Clear Clear 55°F13°C 35°F2°C 47% SSW 7 mphSSW 11 kph 10.0 miles16.1 km 30.09 in1019 hPa 0.00 in0.00 mm --